This demonstration page uses our WeatherBlox Daily Observations layout. Learn more.

Left ArrowRight Arrow

Hourly Observations for July 10, 2018

Temp ( °F °C ) Dew Point ( °F °C ) Humidity (%) Winds ( mph kmh ) Pressure ( in mb ) Visibility ( mi km ) Precip ( " mm )
12:59 am 00:59 Clear 61 16.1 57 13.9 87 87 Calm 30.10 1019 10 16 0.00 0.00
1:59 am 01:59 Clear 62 16.7 57 13.9 84 84 Calm 30.09 1019 10 16 0.00 0.00
2:59 am 02:59 Clear 60 15.6 57 13.9 90 90 Calm 30.08 1019 10 16 0.00 0.00
3:59 am 03:59 Clear 61 16.1 57 13.9 87 87 Calm 30.07 1018 10 16 0.00 0.00
4:59 am 04:59 Clear 60 15.6 57 13.9 90 90 Calm 30.06 1018 10 16 0.00 0.00
5:59 am 05:59 Partly Cloudy 60 15.6 57 13.9 90 90 Calm 30.06 1018 10 16 0.00 0.00
6:59 am 06:59 Mostly Sunny 65 18.3 62 16.7 90 90 Calm 30.06 1018 10 16 0.00 0.00
7:59 am 07:59 Sunny 74 23.3 64 17.8 71 71 NW 8 13 30.07 1018 10 16 0.00 0.00
8:59 am 08:59 Sunny 79 26.1 59 15 50 50 NW 3 6 30.06 1018 10 16 0.00 0.00
9:59 am 09:59 Mostly Sunny 78 25.6 61 16.1 56 56 W 5 7 30.05 1018 10 16 0.00 0.00
10:59 am 10:59 Mostly Sunny 82 27.8 60 15.6 47 47 Calm 30.04 1017 10 16 0.00 0.00
11:59 am 11:59 Mostly Sunny 85 29.4 61 16.1 45 45 VRB 5 7 30.03 1017 10 16 0.00 0.00
12:59 pm 12:59 Mostly Sunny 86 30 62 16.7 45 45 VRB 3 6 30.01 1016 10 16 0.00 0.00
1:59 pm 13:59 Mostly Sunny 85 29.4 62 16.7 46 46 VRB 5 7 29.98 1015 10 16 0.00 0.00
2:59 pm 14:59 Mostly Sunny 88 31.1 62 16.7 42 42 NNE 5 7 29.96 1014 10 16 0.00 0.00
3:59 pm 15:59 Mostly Sunny 88 31.1 63 17.2 43 43 N 6 9 29.94 1014 10 16 0.00 0.00
4:59 pm 16:59 Mostly Sunny 88 31.1 63 17.2 43 43 ENE 8 13 29.93 1014 10 16 0.00 0.00
5:59 pm 17:59 Mostly Sunny 87 30.6 63 17.2 45 45 E 7 11 29.92 1013 10 16 0.00 0.00
6:59 pm 18:59 Mostly Sunny 85 29.4 62 16.7 46 46 E 7 11 29.92 1013 10 16 0.00 0.00
7:59 pm 19:59 Mostly Sunny 83 28.3 62 16.7 49 49 E 6 9 29.93 1014 10 16 0.00 0.00
8:59 pm 20:59 Clear 79 26.1 62 16.7 56 56 SSE 6 9 29.94 1014 10 16 0.00 0.00
9:59 pm 21:59 Clear 77 25 61 16.1 58 58 S 6 9 29.95 1014 10 16 0.00 0.00
10:59 pm 22:59 Clear 76 24.4 61 16.1 60 60 S 6 9 29.94 1014 10 16 0.00 0.00
11:59 pm 23:59 Clear 74 23.3 61 16.1 64 64 SSW 3 6 29.93 1014 10 16 0.00 0.00

Powered by AerisWeather